Weather History for Shawano, WI

Change the Weather History Date:

Friday, March 22, 2013

  Actual Average (KGRB) Record (KGRB)
Temperature  
Mean Temperature 24 °F 33 °F  
Max Temperature 37 °F 42 °F 69 °F (1938)
Min Temperature 12 °F 25 °F -4 °F (1989)
Degree Days  
Heating Degree Days 40 32  
Month to date heating degree days 794  
Since 1 July heating degree days 6634  
Cooling Degree Days 0 0  
Month to date cooling degree days 0  
Year to date cooling degree days 0  
Moisture  
Dew Point 15 °F    
Average Humidity 67    
Maximum Humidity 86    
Minimum Humidity 41    
Precipitation  
Precipitation 0.00 in 0.07 in 1.33 in (2011)
Month to date precipitation 1.26  
Year to date precipitation 3.50  
Snow  
Snow 0.00 in 0.20 in 7.80 in (2011)
Month to date snowfall 6.5  
Since 1 July snowfall 46.7  
Snow Depth -    
Sea Level Pressure  
Sea Level Pressure 30.02 in    
Wind  
Wind Speed 2 mph (WNW)    
Max Wind Speed 9 mph    
Max Gust Speed -    
Visibility 10 miles    
Events      
T = Trace of Precipitation, MM = Missing Value Source: NWS Daily Summary

Daily Weather History Graph

Daily Weather History Graph

Search for Another Location

Airport:

Trip Planner

Search our weather history database for the weather conditions in past years. The results will help you decide how hot, cold, wet, or windy it might be!

Date:

Astronomy

Mar. 22, 2013 Rise Set
Actual Time 6:53 AM CDT 7:09 PM CDT
Civil Twilight 6:23 AM CDT 7:38 PM CDT
Nautical Twilight 5:49 AM CDT 8:13 PM CDT
Astronomical Twilight 5:14 AM CDT 8:48 PM CDT
Moon 2:26 PM CDT (3/22) 4:04 AM CDT (3/22)
Length of Visible Light 13h 14m
Length of Day
12h 16m
Waxing Gibbous, 77% of the Moon is Illuminated
Mar 22
Waxing Gibbous
Mar 27
Full
Apr 2
Last Quarter
Apr 10
New
Apr 18
First Quarter

Hourly Weather History & Observations

Time (CDT) Temp. Windchill Dew Point Humidity Pressure Visibility Wind Dir Wind Speed Gust Speed Precip Events Conditions
12:15 AM 21.2 °F - 12.2 °F 68% 30.01 in 10.0 mi Calm Calm - N/A   Clear
12:35 AM 19.4 °F - 12.2 °F 74% 30.01 in 10.0 mi Calm Calm - N/A   Clear
12:55 AM 17.6 °F - 10.4 °F 73% 30.01 in 10.0 mi Calm Calm - N/A   Clear
1:15 AM 17.6 °F - 12.2 °F 79% 30.01 in 10.0 mi Calm Calm - N/A   Clear
1:35 AM 15.8 °F - 10.4 °F 79% 30.02 in 10.0 mi Calm Calm - N/A   Clear
1:55 AM 14.0 °F - 10.4 °F 86% 30.02 in 10.0 mi Calm Calm - N/A   Clear
2:15 AM 15.8 °F - 12.2 °F 86% 30.02 in 10.0 mi Calm Calm - N/A   Clear
2:35 AM 14.0 °F - 10.4 °F 86% 30.02 in 10.0 mi Calm Calm - N/A   Clear
2:55 AM 17.6 °F - 12.2 °F 79% 30.03 in 10.0 mi Calm Calm - N/A   Clear
3:15 AM 14.0 °F - 10.4 °F 86% 30.02 in 10.0 mi Calm Calm - N/A   Clear
3:35 AM 15.8 °F - 12.2 °F 86% 30.02 in 10.0 mi Calm Calm - N/A   Clear
3:55 AM 12.2 °F - 8.6 °F 85% 30.02 in 10.0 mi Calm Calm - N/A   Clear
4:15 AM 14.0 °F - 10.4 °F 86% 30.02 in 10.0 mi Calm Calm - N/A   Clear
4:35 AM 15.8 °F 10.2 °F 10.4 °F 79% 30.02 in 10.0 mi West 3.5 mph - N/A   Clear
4:55 AM 14.0 °F 6.5 °F 10.4 °F 86% 30.02 in 10.0 mi West 4.6 mph - N/A   Clear
5:15 AM 14.0 °F 5.1 °F 10.4 °F 86% 30.03 in 10.0 mi West 5.8 mph - N/A   Clear
5:55 AM 14.0 °F 5.1 °F 10.4 °F 86% 30.03 in 10.0 mi West 5.8 mph - N/A   Clear
6:15 AM 14.0 °F 5.1 °F 10.4 °F 86% 30.03 in 10.0 mi West 5.8 mph - N/A   Clear
6:35 AM 14.0 °F - 10.4 °F 86% 30.03 in 10.0 mi Calm Calm - N/A   Clear
6:55 AM 14.0 °F - 10.4 °F 86% 30.03 in 10.0 mi Calm Calm - N/A   Clear
7:15 AM 14.0 °F - 10.4 °F 86% 30.03 in 10.0 mi Calm Calm - N/A   Clear
7:35 AM 14.0 °F - 10.4 °F 86% 30.03 in 10.0 mi Calm Calm - N/A   Clear
7:55 AM 14.0 °F - 10.4 °F 86% 30.03 in 10.0 mi Calm Calm - N/A   Clear
8:15 AM 17.6 °F 12.3 °F 10.4 °F 73% 30.03 in 10.0 mi WNW 3.5 mph - N/A   Clear
9:15 AM 23.0 °F 13.9 °F 15.8 °F 74% 30.03 in 10.0 mi North 8.1 mph - N/A   Clear
9:55 AM 26.6 °F 19.1 °F 15.8 °F 64% 30.03 in 10.0 mi North 6.9 mph - N/A   Clear
10:15 AM 28.4 °F 22.2 °F 17.6 °F 64% 30.03 in 10.0 mi North 5.8 mph - N/A   Clear
10:35 AM 28.4 °F 21.2 °F 17.6 °F 64% 30.02 in 10.0 mi North 6.9 mph - N/A   Clear
10:55 AM 30.2 °F 24.3 °F 17.6 °F 60% 30.02 in 10.0 mi North 5.8 mph - N/A   Clear
11:15 AM 30.2 °F 25.4 °F 17.6 °F 60% 30.02 in 10.0 mi North 4.6 mph - N/A   Scattered Clouds
11:35 AM 30.2 °F 24.3 °F 17.6 °F 60% 30.02 in 10.0 mi WNW 5.8 mph - N/A   Scattered Clouds
11:55 AM 32.0 °F 24.8 °F 15.8 °F 51% 30.02 in 10.0 mi WNW 8.1 mph - N/A   Scattered Clouds
12:15 PM 32.0 °F 25.6 °F 17.6 °F 55% 30.02 in 10.0 mi WSW 6.9 mph - N/A   Scattered Clouds
12:35 PM 32.0 °F 24.2 °F 17.6 °F 55% 30.02 in 10.0 mi WSW 9.2 mph - N/A   Scattered Clouds
12:55 PM 32.0 °F 24.8 °F 15.8 °F 51% 30.02 in 10.0 mi West 8.1 mph - N/A   Scattered Clouds
1:15 PM 32.0 °F 27.5 °F 15.8 °F 51% 30.01 in 10.0 mi NNW 4.6 mph - N/A   Scattered Clouds
1:35 PM 32.0 °F 26.4 °F 17.6 °F 55% 30.01 in 10.0 mi WNW 5.8 mph - N/A   Clear
1:55 PM 33.8 °F 27.0 °F 17.6 °F 52% 30.00 in 10.0 mi West 8.1 mph - N/A   Clear
2:15 PM 33.8 °F 27.7 °F 15.8 °F 48% 30.00 in 10.0 mi West 6.9 mph - N/A   Clear
2:55 PM 33.8 °F 29.6 °F 15.8 °F 48% 29.99 in 10.0 mi West 4.6 mph - N/A   Clear
3:15 PM 35.6 °F 29.9 °F 17.6 °F 48% 29.99 in 10.0 mi West 6.9 mph - N/A   Clear
3:35 PM 35.6 °F 29.9 °F 15.8 °F 44% 29.98 in 10.0 mi WNW 6.9 mph - N/A   Clear
4:15 PM 37.4 °F - 17.6 °F 45% 29.99 in 10.0 mi Calm Calm - N/A   Clear
4:35 PM 35.6 °F - 15.8 °F 44% 29.98 in 10.0 mi Calm Calm - N/A   Clear
4:55 PM 35.6 °F 32.8 °F 17.6 °F 48% 29.99 in 10.0 mi East 3.5 mph - N/A   Clear
5:15 PM 37.4 °F - 17.6 °F 45% 29.99 in 10.0 mi Calm Calm - N/A   Clear
5:35 PM 35.6 °F 32.8 °F 17.6 °F 48% 30.00 in 10.0 mi SE 3.5 mph - N/A   Clear
5:55 PM 35.6 °F - 14.0 °F 41% 30.00 in 10.0 mi Calm Calm - N/A   Clear
6:15 PM 33.8 °F 27.7 °F 17.6 °F 52% 30.01 in 10.0 mi SE 6.9 mph - N/A   Clear
6:35 PM 33.8 °F 29.6 °F 17.6 °F 52% 30.01 in 10.0 mi SSE 4.6 mph - N/A   Clear
6:55 PM 32.0 °F - 17.6 °F 55% 30.02 in 10.0 mi Calm Calm - N/A   Clear
7:15 PM 32.0 °F - 17.6 °F 55% 30.03 in 10.0 mi Calm Calm - N/A   Clear
7:35 PM 32.0 °F - 17.6 °F 55% 30.03 in 10.0 mi Calm Calm - N/A   Clear
7:55 PM 32.0 °F - 17.6 °F 55% 30.03 in 10.0 mi Calm Calm - N/A   Clear
8:15 PM 32.0 °F - 17.6 °F 55% 30.03 in 10.0 mi Calm Calm - N/A   Clear
8:35 PM 30.2 °F - 17.6 °F 60% 30.03 in 10.0 mi Calm Calm - N/A   Clear
8:55 PM 30.2 °F - 17.6 °F 60% 30.03 in 10.0 mi Calm Calm - N/A   Clear
9:15 PM 30.2 °F - 17.6 °F 60% 30.03 in 10.0 mi Calm Calm - N/A   Clear
9:35 PM 26.6 °F - 17.6 °F 69% 30.04 in 10.0 mi Calm Calm - N/A   Scattered Clouds
9:55 PM 23.0 °F - 15.8 °F 74% 30.04 in 10.0 mi Calm Calm - N/A   Scattered Clouds
10:15 PM 23.0 °F - 17.6 °F 80% 30.04 in 10.0 mi Calm Calm - N/A   Mostly Cloudy
10:35 PM 21.2 °F - 15.8 °F 80% 30.05 in 10.0 mi Calm Calm - N/A   Overcast
10:55 PM 23.0 °F - 17.6 °F 80% 30.06 in 10.0 mi Calm Calm - N/A   Overcast
11:15 PM 24.8 °F - 17.6 °F 74% 30.06 in 10.0 mi Calm Calm - N/A   Overcast
11:35 PM 26.6 °F - 19.4 °F 74% 30.06 in 10.0 mi Calm Calm - N/A   Overcast
11:55 PM 26.6 °F 22.6 °F 19.4 °F 74% 30.06 in 10.0 mi SSW 3.5 mph - N/A   Overcast